Change the Weather History Date:

Sunday, February 10, 2013

  Actual Average Record
Temperature  
Mean Temperature 22 °F -  
Max Temperature 33 °F 35 °F 50 °F (2001)
Min Temperature 10 °F 20 °F 8 °F (2007)
Degree Days  
Heating Degree Days 44    
Moisture  
Dew Point -2 °F    
Average Humidity 43    
Maximum Humidity 53    
Minimum Humidity 27    
Precipitation  
Precipitation 0.03 in - - ()
Sea Level Pressure  
Sea Level Pressure 30.28 in    
Wind  
Wind Speed 9 mph (NW)    
Max Wind Speed 13 mph    
Max Gust Speed 21 mph    
Visibility 10 miles    
Events      
Averages and records for this station are not official NWS values.
T = Trace of Precipitation, MM = Missing Value Source: NWS Daily Summary

Daily Weather History Graph

Daily Weather History Graph

Search for Another Location

Airport or City:

Trip Planner

Search our weather history database for the weather conditions in past years. The results will help you decide how hot, cold, wet, or windy it might be!

Date:

Astronomy

Feb. 10, 2013 Rise Set
Actual Time 6:48 AM EST 5:12 PM EST
Civil Twilight 6:19 AM EST 5:41 PM EST
Nautical Twilight 5:46 AM EST 6:14 PM EST
Astronomical Twilight 5:13 AM EST 6:47 PM EST
Moon 6:34 AM EST (2/10) 6:01 PM EST (2/10)
Length of Visible Light 11h 22m
Length of Day
10h 24m
New Moon, 0% of the Moon is Illuminated
Feb 10
New Moon
Feb 17
First Quarter
Feb 25
Full
Mar 4
Last Quarter
Mar 11
New

Hourly Weather History & Observations

Time (EST) Temp. Windchill Dew Point Humidity Pressure Visibility Wind Dir Wind Speed Gust Speed Precip Events Conditions
12:15 AM 14.0 °F 1.2 °F -0.4 °F 53% 30.16 in 10.0 mi NW 10.4 mph 17.3 mph N/A   Clear
12:35 AM 14.0 °F 1.2 °F -0.4 °F 53% 30.17 in 10.0 mi NNW 10.4 mph 17.3 mph N/A   Clear
12:55 AM 14.0 °F -0.2 °F -2.2 °F 49% 30.17 in 10.0 mi NW 12.7 mph 17.3 mph N/A   Clear
1:15 AM 14.0 °F 2.0 °F -2.2 °F 49% 30.17 in 10.0 mi NW 9.2 mph 18.4 mph N/A   Clear
1:35 AM 14.0 °F 0.5 °F -2.2 °F 49% 30.18 in 10.0 mi NW 11.5 mph 17.3 mph N/A   Clear
1:55 AM 14.0 °F 2.9 °F -2.2 °F 49% 30.18 in 10.0 mi NW 8.1 mph - N/A   Clear
2:15 AM 14.0 °F 1.2 °F -2.2 °F 49% 30.19 in 10.0 mi NW 10.4 mph 16.1 mph N/A   Clear
2:35 AM 14.0 °F 2.0 °F -2.2 °F 49% 30.20 in 10.0 mi WNW 9.2 mph - N/A   Clear
2:55 AM 14.0 °F 2.9 °F -2.2 °F 49% 30.20 in 10.0 mi WNW 8.1 mph 20.7 mph N/A   Clear
3:15 AM 14.0 °F 1.2 °F -2.2 °F 49% 30.20 in 10.0 mi NW 10.4 mph - N/A   Clear
3:35 AM 14.0 °F 2.0 °F -2.2 °F 49% 30.22 in 10.0 mi NW 9.2 mph - N/A   Clear
3:55 AM 14.0 °F 3.9 °F -4.0 °F 45% 30.22 in 10.0 mi WNW 6.9 mph - N/A   Clear
4:15 AM 12.2 °F 0.7 °F -4.0 °F 48% 30.23 in 10.0 mi WNW 8.1 mph - N/A   Clear
4:35 AM 12.2 °F 1.7 °F -5.8 °F 45% 30.24 in 10.0 mi West 6.9 mph - N/A   Clear
4:55 AM 12.2 °F 1.7 °F -4.0 °F 48% 30.25 in 10.0 mi West 6.9 mph - N/A   Clear
5:15 AM 10.4 °F 0.8 °F -5.8 °F 48% 30.26 in 10.0 mi West 5.8 mph - N/A   Clear
5:35 AM 10.4 °F -2.4 °F -5.8 °F 48% 30.26 in 10.0 mi West 9.2 mph - N/A   Clear
5:55 AM 10.4 °F -0.4 °F -4.0 °F 52% 30.27 in 10.0 mi West 6.9 mph - N/A   Clear
6:15 AM 10.4 °F -2.4 °F -5.8 °F 48% 30.27 in 10.0 mi West 9.2 mph - N/A   Clear
6:35 AM 10.4 °F -2.4 °F -5.8 °F 48% 30.28 in 10.0 mi WNW 9.2 mph - N/A   Clear
6:55 AM 10.4 °F -1.5 °F -5.8 °F 48% 30.30 in 10.0 mi WNW 8.1 mph - N/A   Clear
7:15 AM 10.4 °F -1.5 °F -5.8 °F 48% 30.30 in 10.0 mi WNW 8.1 mph - N/A   Clear
7:35 AM 12.2 °F 0.7 °F -4.0 °F 48% 30.32 in 10.0 mi WNW 8.1 mph - N/A   Clear
7:55 AM 12.2 °F 0.7 °F -4.0 °F 48% 30.33 in 10.0 mi WNW 8.1 mph - N/A   Clear
8:15 AM 14.0 °F 2.9 °F -5.8 °F 41% 30.33 in 10.0 mi NW 8.1 mph - N/A   Clear
8:35 AM 15.8 °F 4.2 °F -2.2 °F 45% 30.34 in 10.0 mi WNW 9.2 mph - N/A   Clear
8:55 AM 17.6 °F 6.4 °F -2.2 °F 42% 30.34 in 10.0 mi NW 9.2 mph - N/A   Clear
9:15 AM 19.4 °F 7.9 °F -2.2 °F 39% 30.35 in 10.0 mi NW 10.4 mph 16.1 mph N/A   Clear
9:35 AM 21.2 °F 9.5 °F -0.4 °F 39% 30.35 in 10.0 mi NNW 11.5 mph - N/A   Clear
9:55 AM 21.2 °F 9.5 °F -0.4 °F 39% 30.35 in 10.0 mi NNW 11.5 mph 16.1 mph N/A   Clear
10:15 AM 24.8 °F 14.6 °F 1.4 °F 36% 30.36 in 10.0 mi NNW 10.4 mph - N/A   Clear
10:35 AM 24.8 °F 16.1 °F 1.4 °F 36% 30.36 in 10.0 mi NNW 8.1 mph - N/A   Clear
10:55 AM 26.6 °F 16.8 °F 1.4 °F 34% 30.36 in 10.0 mi NNW 10.4 mph - N/A   Clear
11:15 AM 26.6 °F 18.2 °F 1.4 °F 34% 30.37 in 10.0 mi NW 8.1 mph - N/A   Clear
11:35 AM 28.4 °F 21.2 °F 1.4 °F 31% 30.36 in 10.0 mi NW 6.9 mph - N/A   Clear
11:56 AM 30.2 °F 24.3 °F 3.2 °F 32% 30.36 in 10.0 mi NW 5.8 mph - N/A   Clear
12:15 PM 32.0 °F 24.8 °F 1.4 °F 27% 30.36 in 10.0 mi NW 8.1 mph - N/A   Clear
12:35 PM 33.8 °F 27.0 °F 3.2 °F 28% 30.35 in 10.0 mi WNW 8.1 mph - N/A   Clear
1:15 PM 33.8 °F 28.6 °F 5.0 °F 30% 30.33 in 10.0 mi North 5.8 mph - N/A   Clear
1:35 PM 33.8 °F - 6.8 °F 32% 30.32 in 10.0 mi Calm Calm - N/A   Clear
1:55 PM 33.8 °F - 8.6 °F 35% 30.32 in 10.0 mi Calm Calm - 0.03 in   Clear